Regional Weather Roundup
Issued by NWS

Home | Current Version | Previous Version | Text Only | Print | Product List | Glossary On
Versions: 1 2 3 4 5 6 7 8 9 10 11 12 13 14 15 16 17 18 19 20 21 22 23 24 25 26 27 28 29 30 31 32 33 34 35 36 37 38 39 40 41 42 43 44 45 46 47 48 49 50
000
ASUS46 KSEW 261710
RWRWA

WASHINGTON REGIONAL WEATHER ROUNDUP
NATIONAL WEATHER SERVICE SEATTLE WA
900 AM PST WED NOV 26 2014

NOTE:"FAIR" INDICATES FEW OR NO CLOUDS BELOW 12,000 FEET WITH NO
SIGNIFICANT WEATHER AND/OR OBSTRUCTIONS TO VISIBILITY.

WAZ505-507>509-261800-
SEATTLE, TACOMA, EVERETT, AND VICINITY

CITY           SKY/WX    TMP DP  RH WIND       PRES   REMARKS
EVERETT        CLOUDY    55  51  86 S13G24    30.10F
BOEING FIELD   CLOUDY    59  52  77 S12       30.12F
RENTON         PTSUNNY   58  53  84 S9        30.13S
SEATAC AIRPORT PTSUNNY   56  52  86 S10       30.13F
JBLM-MCCHORD   CLOUDY    53  53 100 CALM      30.14F
PUYALLUP       NOT AVBL
JBLM-FT LEWIS  DRIZZLE   53  53  99 SE2       30.14F
TACOMA NARROWS LGT RAIN  55  52  89 S8        30.14F
$$

WAZ001-503-506-510-514-515-261800-
NORTH INTERIOR

CITY           SKY/WX    TMP DP  RH WIND       PRES   REMARKS
BELLINGHAM     CLOUDY    53  51  93 SE9       30.05F
FRIDAY HARBOR  CLOUDY    51  50  96 CALM      30.06F FOG
EASTSOUND      MOCLDY    54  52  94 S12G18    30.02F
PORT ANGELES   CLOUDY    49  47  93 CALM      30.06F
NAS WHIDBEY    CLOUDY    56  52  86 SE8       30.07F
BURLINGTON     CLOUDY    55  54  94 SE7       30.09F
$$

WAZ020-022-039-040-504-511-512-261800-
SOUTHWEST INTERIOR

CITY           SKY/WX    TMP DP  RH WIND       PRES   REMARKS
SHELTON        LGT RAIN  54  54 100 S5        30.12S FOG
OLYMPIA        CLOUDY    55  53  93 CALM      30.14F
CHEHALIS       CLOUDY    57  55  94 VRB3      30.14F
KELSO          CLOUDY    55  52  88 SE8       30.20S
VANCOUVER      CLOUDY    57  50  77 SE5       30.17F
SCAPPOOSE, OR  CLOUDY    54  53  97 CALM      30.17F
PORTLAND, OR   CLOUDY    57  52  83 SE6       30.18F
$$

WAZ021-516-517-261800-
WASHINGTON COAST

CITY           SKY/WX    TMP DP  RH WIND       PRES   REMARKS
FORKS          LGT RAIN  54  54 100 S9G21     30.06F VSB 1
HOQUIAM        CLOUDY    54  52  93 SE10      30.12F
ASTORIA, OR    CLOUDY    55  53  93 SE5       30.13S
$$

WAZ019-023-024-040-518-519-261800-
CASCADE MOUNTAINS AND COLUMBIA GORGE

CITY           SKY/WX    TMP DP  RH WIND       PRES   REMARKS
STAMPEDE PASS  NOT AVBL
TROUTDALE, OR  CLOUDY    56  52  86 E3        30.17F
THE DALLES, OR SUNNY     53  43  68 E3        30.20R
$$

WAZ026-027-041>044-520-521-261800-
EAST SLOPES

CITY           SKY/WX    TMP DP  RH WIND       PRES   REMARKS
OMAK           CLOUDY    33  31  92 S6        30.18S FOG
WENATCHEE      FOG       38  36  92 CALM      30.18S VSB 1/4
ELLENSBURG     FOG       37  35  92 CALM      30.16R VSB<1/4
YAKIMA         FOG       40  38  93 CALM      30.18S VSB 1/4
$$

WAZ028-034-035-261800-
COLUMBIA BASIN

CITY           SKY/WX    TMP DP  RH WIND       PRES   REMARKS
EPHRATA        FOG       37  37 100 NE6       30.18R VSB 1/2
MOSES LAKE     FOG       37  36  96 CALM      30.19R VSB 1/2
PASCO          FOG       39  39 100 N5        30.21R VSB 1/2
HERMISTON, OR  CLOUDY    58  42  55 SW10      30.19R
$$

WAZ036>038-261800-
NORTHEAST WASHINGTON

CITY           SKY/WX    TMP DP  RH WIND       PRES   REMARKS
SPOKANE GEIGER FOG       35  35 100 S7        30.15R VSB 1/8
SPOKANE FELTS  CLOUDY    37  34  89 CALM      30.17S FOG
FAIRCHILD AFB  MIX PCPN  36  36 100 S3        30.15S VSB 1/4
COEURDALENE,ID CLOUDY    36  32  87 S5        30.15F
DEER PARK      FOG       33  33 100 CALM      30.17R VSB 3/4
$$

WAZ029>033-261800-
SOUTHEAST WASHINGTON

CITY           SKY/WX    TMP DP  RH WIND       PRES   REMARKS
PULLMAN        CLOUDY    49  42  77 SW14      30.20R
LEWISTON, ID   CLOUDY    41  40  96 CALM      30.21R
WALLA WALLA    CLOUDY    56  44  64 S9        30.20S
PENDLETON, OR  CLOUDY    52  41  66 S7        30.21R
$$



USA.gov is the U.S. government's official web portal to all federal, state and local government web resources and services.